TimeCDT,TemperatureF,Dew PointF,Humidity,Sea Level PressureIn,VisibilityMPH,Wind Direction,Wind SpeedMPH,Gust SpeedMPH,PrecipitationIn,Events,Conditions,WindDirDegrees,DateUTC
12:53 AM,45.0,43.0,93,29.43,10.0,Calm,Calm,-,0.01,,Overcast,0,2012-10-19 05:53:00
1:31 AM,44.6,42.8,93,29.42,10.0,Calm,Calm,-,N/A,,Overcast,0,2012-10-19 06:31:00
1:53 AM,45.0,43.0,93,29.45,10.0,Calm,Calm,-,N/A,,Overcast,0,2012-10-19 06:53:00
2:26 AM,44.6,42.8,93,29.44,10.0,Calm,Calm,-,N/A,,Overcast,0,2012-10-19 07:26:00
2:53 AM,45.0,43.0,93,29.46,9.0,Calm,Calm,-,0.00,Rain,Light Rain,0,2012-10-19 07:53:00
3:24 AM,44.6,42.8,93,29.45,8.0,Calm,Calm,-,0.00,Rain,Light Rain,0,2012-10-19 08:24:00
3:38 AM,44.6,42.8,93,29.46,6.0,Calm,Calm,-,0.01,Rain,Light Rain,0,2012-10-19 08:38:00
3:53 AM,45.0,43.0,93,29.48,5.0,Calm,Calm,-,0.02,Rain,Light Rain,0,2012-10-19 08:53:00
4:13 AM,44.6,42.8,93,29.46,5.0,Calm,Calm,-,0.02,Rain,Light Rain,0,2012-10-19 09:13:00
4:45 AM,44.6,42.8,93,29.48,6.0,Calm,Calm,-,0.03,Rain,Light Rain,0,2012-10-19 09:45:00
4:53 AM,44.1,43.0,96,29.50,6.0,Calm,Calm,-,0.04,Rain,Light Rain,0,2012-10-19 09:53:00
5:53 AM,44.1,42.1,93,29.52,6.0,Calm,Calm,-,0.01,Rain,Light Rain,0,2012-10-19 10:53:00
6:48 AM,42.8,42.8,100,29.52,10.0,Calm,Calm,-,0.01,,Overcast,0,2012-10-19 11:48:00
6:53 AM,43.0,42.1,97,29.55,10.0,Calm,Calm,-,0.01,Rain,Light Rain,0,2012-10-19 11:53:00
7:35 AM,42.8,41.0,93,29.54,10.0,ENE,3.5,-,0.00,,Overcast,70,2012-10-19 12:35:00
7:42 AM,42.8,39.2,87,29.54,10.0,East,3.5,-,0.00,,Overcast,80,2012-10-19 12:42:00
7:53 AM,43.0,39.9,89,29.57,10.0,ENE,3.5,-,0.00,,Overcast,70,2012-10-19 12:53:00
8:43 AM,44.6,39.2,81,29.56,10.0,East,3.5,-,0.00,,Overcast,80,2012-10-19 13:43:00
8:53 AM,45.0,41.0,86,29.59,10.0,East,3.5,-,0.00,,Overcast,80,2012-10-19 13:53:00
9:00 AM,44.6,39.2,81,29.57,10.0,ENE,3.5,-,N/A,,Overcast,60,2012-10-19 14:00:00
9:11 AM,44.6,39.2,81,29.57,10.0,NE,3.5,-,N/A,,Overcast,50,2012-10-19 14:11:00
9:18 AM,44.6,41.0,87,29.57,10.0,NE,3.5,-,N/A,,Overcast,50,2012-10-19 14:18:00
9:53 AM,45.0,41.0,86,29.60,10.0,NNE,4.6,-,N/A,,Overcast,30,2012-10-19 14:53:00
10:53 AM,46.0,39.9,79,29.62,10.0,NE,4.6,-,N/A,,Overcast,40,2012-10-19 15:53:00
11:53 AM,46.9,37.9,71,29.64,10.0,NNE,3.5,-,N/A,,Overcast,30,2012-10-19 16:53:00
12:53 PM,48.0,37.0,66,29.64,10.0,NE,6.9,-,N/A,,Overcast,50,2012-10-19 17:53:00
1:53 PM,50.0,36.0,59,29.64,10.0,ENE,6.9,-,N/A,,Overcast,70,2012-10-19 18:53:00
2:53 PM,48.9,36.0,61,29.65,10.0,Calm,Calm,-,N/A,,Overcast,0,2012-10-19 19:53:00
3:53 PM,50.0,37.9,63,29.67,10.0,Variable,5.8,-,N/A,,Overcast,0,2012-10-19 20:53:00
4:53 PM,48.9,37.0,64,29.68,10.0,Calm,Calm,-,N/A,,Overcast,0,2012-10-19 21:53:00
5:53 PM,46.9,37.0,68,29.69,10.0,Calm,Calm,-,N/A,,Overcast,0,2012-10-19 22:53:00
6:53 PM,39.0,35.1,86,29.72,10.0,Calm,Calm,-,N/A,,Clear,0,2012-10-19 23:53:00
7:53 PM,35.1,32.0,89,29.72,10.0,Calm,Calm,-,N/A,,Clear,0,2012-10-20 00:53:00
8:53 PM,32.0,30.0,92,29.73,10.0,Calm,Calm,-,N/A,,Clear,0,2012-10-20 01:53:00
9:53 PM,30.0,28.0,92,29.75,10.0,Calm,Calm,-,N/A,,Clear,0,2012-10-20 02:53:00
10:53 PM,28.9,27.0,92,29.75,10.0,Calm,Calm,-,N/A,,Clear,0,2012-10-20 03:53:00
11:53 PM,28.0,25.0,88,29.75,10.0,Calm,Calm,-,N/A,,Clear,0,2012-10-20 04:53:00